Time,TemperatureF,DewpointF,PressureIn,WindDirection,WindDirectionDegrees,WindSpeedMPH,WindSpeedGustMPH,Humidity,HourlyPrecipIn,Conditions,Clouds,dailyrainin,SoftwareType,DateUTC
2017-07-24 00:03:00,85.8,88.0,30.01,South,180,0.2,1.1,68,0.00,,,0.00,,2017-07-24 04:03:00,
2017-07-24 00:08:00,85.8,88.0,30.01,South,180,0.2,2.9,68,0.00,,,0.00,,2017-07-24 04:08:00,
2017-07-24 00:13:00,85.9,88.0,30.01,South,180,0.0,0.0,68,0.00,,,0.00,,2017-07-24 04:13:00,
2017-07-24 00:18:00,85.9,88.0,30.01,South,180,0.1,1.6,68,0.00,,,0.00,,2017-07-24 04:18:00,
2017-07-24 00:23:00,85.8,88.0,30.00,South,180,1.1,2.2,68,0.00,,,0.00,,2017-07-24 04:23:00,
2017-07-24 00:28:00,85.5,88.0,30.00,South,180,1.8,3.1,68,0.00,,,0.00,,2017-07-24 04:28:00,
2017-07-24 00:33:00,85.4,87.9,30.00,South,180,0.0,0.0,68,0.00,,,0.00,,2017-07-24 04:33:00,
2017-07-24 00:38:00,85.4,88.0,30.00,South,180,0.0,0.7,68,0.00,,,0.00,,2017-07-24 04:38:00,
2017-07-24 00:43:00,85.5,87.9,30.00,South,180,0.0,0.0,68,0.00,,,0.00,,2017-07-24 04:43:00,
2017-07-24 00:48:00,85.6,87.9,30.00,South,180,0.0,0.0,68,0.00,,,0.00,,2017-07-24 04:48:00,
2017-07-24 00:53:00,85.7,87.9,29.99,South,180,0.0,0.0,68,0.00,,,0.00,,2017-07-24 04:53:00,
2017-07-24 00:58:00,85.6,87.9,29.99,South,180,0.0,0.0,68,0.00,,,0.00,,2017-07-24 04:58:00,
2017-07-24 01:03:00,85.7,87.9,29.99,South,180,0.0,0.0,68,0.00,,,0.00,,2017-07-24 05:03:00,
2017-07-24 01:08:00,85.7,87.9,29.99,South,180,0.0,0.0,68,0.00,,,0.00,,2017-07-24 05:08:00,
2017-07-24 01:13:00,85.7,87.9,29.99,South,180,0.0,0.0,68,0.00,,,0.00,,2017-07-24 05:13:00,
2017-07-24 01:18:00,85.7,87.9,29.99,South,180,0.0,0.0,68,0.00,,,0.00,,2017-07-24 05:18:00,
2017-07-24 01:23:00,85.7,87.9,29.99,South,180,0.0,0.0,69,0.00,,,0.00,,2017-07-24 05:23:00,
2017-07-24 01:28:00,85.6,87.9,29.98,South,180,0.0,0.0,69,0.00,,,0.00,,2017-07-24 05:28:00,
2017-07-24 01:33:00,85.6,87.9,29.98,South,180,0.0,0.0,69,0.00,,,0.00,,2017-07-24 05:33:00,
2017-07-24 01:38:00,85.4,87.9,29.98,South,180,0.0,0.0,70,0.00,,,0.00,,2017-07-24 05:38:00,
2017-07-24 01:43:00,85.4,87.8,29.99,South,180,0.0,0.0,70,0.00,,,0.00,,2017-07-24 05:43:00,
2017-07-24 01:48:00,85.3,87.8,29.98,South,180,0.0,0.0,70,0.00,,,0.00,,2017-07-24 05:48:00,
2017-07-24 01:53:00,85.3,87.8,29.98,South,180,0.0,0.0,70,0.00,,,0.00,,2017-07-24 05:53:00,
2017-07-24 01:58:00,85.3,87.8,29.98,South,180,0.0,0.0,70,0.00,,,0.00,,2017-07-24 05:58:00,
2017-07-24 02:03:00,85.1,87.8,29.98,South,180,0.0,0.0,70,0.00,,,0.00,,2017-07-24 06:03:00,
2017-07-24 02:08:00,85.1,87.8,29.98,South,180,0.0,0.0,71,0.00,,,0.00,,2017-07-24 06:08:00,
2017-07-24 02:13:00,85.1,87.8,29.98,South,180,0.0,0.0,71,0.00,,,0.00,,2017-07-24 06:13:00,
2017-07-24 02:18:00,85.1,87.8,29.97,South,180,0.0,0.0,71,0.00,,,0.00,,2017-07-24 06:18:00,
2017-07-24 02:23:00,85.1,87.8,29.97,South,180,0.0,0.0,71,0.00,,,0.00,,2017-07-24 06:23:00,
2017-07-24 02:28:00,85.0,87.8,29.98,South,180,0.0,0.0,71,0.00,,,0.00,,2017-07-24 06:28:00,
2017-07-24 02:33:00,85.0,87.8,29.98,South,180,0.0,0.0,71,0.00,,,0.00,,2017-07-24 06:33:00,
2017-07-24 02:38:00,85.0,87.8,29.98,South,180,0.0,0.0,71,0.00,,,0.00,,2017-07-24 06:38:00,
2017-07-24 02:43:00,85.0,87.8,29.98,South,180,0.0,0.0,71,0.00,,,0.00,,2017-07-24 06:43:00,
2017-07-24 02:48:00,84.9,87.8,29.98,SSW,202,0.0,0.0,71,0.00,,,0.00,,2017-07-24 06:48:00,
2017-07-24 02:53:00,84.8,87.8,29.98,SSW,202,0.0,0.0,72,0.00,,,0.00,,2017-07-24 06:53:00,
2017-07-24 02:55:00,84.8,87.8,29.98,SSW,202,0.0,0.0,73,0.00,,,0.00,,2017-07-24 06:55:00,
2017-07-24 03:00:00,84.8,87.7,29.98,SSW,202,0.0,0.0,73,0.00,,,0.00,,2017-07-24 07:00:00,
2017-07-24 03:05:00,84.9,87.8,29.98,SSW,202,0.0,0.0,73,0.00,,,0.00,,2017-07-24 07:05:00,
2017-07-24 03:10:00,85.0,87.8,29.98,SSW,202,0.0,0.0,73,0.00,,,0.00,,2017-07-24 07:10:00,
2017-07-24 03:15:00,84.9,87.7,29.98,SSW,202,0.0,0.0,73,0.00,,,0.00,,2017-07-24 07:15:00,
2017-07-24 03:20:00,84.8,87.8,29.98,SSW,202,0.0,0.0,73,0.00,,,0.00,,2017-07-24 07:20:00,
2017-07-24 03:25:00,84.7,87.8,29.98,SSW,202,0.0,0.0,73,0.00,,,0.00,,2017-07-24 07:25:00,
2017-07-24 03:30:00,84.6,87.7,29.98,SSW,202,0.0,0.0,73,0.00,,,0.00,,2017-07-24 07:30:00,
2017-07-24 03:35:00,84.3,87.7,29.98,SSW,202,0.0,0.0,74,0.00,,,0.00,,2017-07-24 07:35:00,
2017-07-24 03:40:00,84.0,87.7,29.98,SSW,202,0.0,0.0,74,0.00,,,0.00,,2017-07-24 07:40:00,
2017-07-24 03:45:00,83.9,87.7,29.98,SSW,202,0.0,0.0,75,0.00,,,0.00,,2017-07-24 07:45:00,
2017-07-24 03:50:00,83.6,87.8,29.98,SSW,202,0.0,0.0,75,0.00,,,0.00,,2017-07-24 07:50:00,
2017-07-24 03:55:00,83.5,87.7,29.98,SSW,202,0.0,0.0,75,0.00,,,0.00,,2017-07-24 07:55:00,
2017-07-24 04:00:00,83.4,87.7,29.98,SSW,202,0.0,0.9,75,0.00,,,0.00,,2017-07-24 08:00:00,
2017-07-24 04:05:00,82.8,87.7,29.98,SSW,202,0.0,0.0,75,0.00,,,0.00,,2017-07-24 08:05:00,
2017-07-24 04:10:00,82.9,87.7,29.98,SSW,202,0.0,0.0,75,0.00,,,0.00,,2017-07-24 08:10:00,
2017-07-24 04:15:00,82.7,87.7,29.98,SSW,202,0.0,0.0,76,0.00,,,0.00,,2017-07-24 08:15:00,
2017-07-24 04:20:00,82.7,87.7,29.98,SSW,202,0.0,0.0,76,0.00,,,0.00,,2017-07-24 08:20:00,
2017-07-24 04:25:00,82.8,87.7,29.97,SSW,202,0.0,0.0,76,0.00,,,0.00,,2017-07-24 08:25:00,
2017-07-24 04:30:00,83.1,87.7,29.98,SSW,202,0.0,0.0,76,0.00,,,0.00,,2017-07-24 08:30:00,
2017-07-24 04:35:00,83.3,87.7,29.98,SSW,202,0.0,0.0,76,0.00,,,0.00,,2017-07-24 08:35:00,
2017-07-24 04:40:00,83.2,87.6,29.98,SSW,202,0.0,0.0,76,0.00,,,0.00,,2017-07-24 08:40:00,
2017-07-24 04:45:00,83.0,87.7,29.98,SSW,202,0.0,0.0,76,0.00,,,0.00,,2017-07-24 08:45:00,
2017-07-24 04:50:00,83.0,87.6,29.98,SSW,202,0.0,0.0,76,0.00,,,0.00,,2017-07-24 08:50:00,
2017-07-24 04:55:00,83.1,87.7,29.98,SSW,202,0.0,0.0,76,0.00,,,0.00,,2017-07-24 08:55:00,
2017-07-24 05:00:00,83.3,87.6,29.98,SSW,202,0.0,0.0,76,0.00,,,0.00,,2017-07-24 09:00:00,
2017-07-24 05:05:00,83.5,87.7,29.98,SSW,202,0.0,0.0,76,0.00,,,0.00,,2017-07-24 09:05:00,
2017-07-24 05:10:00,83.7,87.6,29.98,SSW,202,0.0,0.0,75,0.00,,,0.00,,2017-07-24 09:10:00,
2017-07-24 05:15:00,83.7,87.6,29.98,SSW,202,0.0,0.0,75,0.00,,,0.00,,2017-07-24 09:15:00,